�������l�o���
Date,Time,MP-1(��Sv/h),MP-2(��Sv/h),MP-3(��Sv/h),MP-4(��Sv/h),MP-5(��Sv/h),MP-6(��Sv/h),MP-7(��Sv/h),MP-8(��Sv/h),����,����(m/s),���J
2019/03/20,00:00,0.771,1.131,0.778,1.441,1.041,0.440,0.778,0.739,�k��,2.6,��
2019/03/20,00:10,0.770,1.135,0.778,1.441,1.041,0.439,0.778,0.736,�k��,3.2,��
2019/03/20,00:20,0.771,1.133,0.778,1.439,1.039,0.441,0.779,0.736,�k��,3.6,��
2019/03/20,00:30,0.771,1.137,0.778,1.442,1.042,0.439,0.776,0.737,�k��,3.4,��
2019/03/20,00:40,0.769,1.135,0.779,1.441,1.041,0.439,0.777,0.735,�k��,3.5,��
2019/03/20,00:50,0.771,1.132,0.777,1.439,1.039,0.441,0.779,0.737,�k��,3.3,��
2019/03/20,01:00,0.770,1.137,0.778,1.438,1.040,0.440,0.776,0.736,���k��,2.8,��
2019/03/20,01:10,0.771,1.135,0.777,1.441,1.039,0.439,0.778,0.739,�k��,2.6,��
2019/03/20,01:20,0.769,1.134,0.781,1.439,1.039,0.439,0.776,0.736,�k��,2.6,��
2019/03/20,01:30,0.771,1.135,0.777,1.441,1.042,0.438,0.778,0.737,�k�k��,3.0,��
2019/03/20,01:40,0.770,1.135,0.777,1.439,1.040,0.438,0.776,0.737,�k�k��,2.9,��
2019/03/20,01:50,0.770,1.137,0.778,1.440,1.042,0.439,0.777,0.737,�k�k��,3.6,��
2019/03/20,02:00,0.771,1.137,0.779,1.441,1.039,0.440,0.775,0.736,�k�k��,3.5,��
2019/03/20,02:10,0.772,1.137,0.777,1.443,1.039,0.440,0.778,0.738,�k�k��,4.3,��
2019/03/20,02:20,0.770,1.136,0.777,1.439,1.038,0.440,0.777,0.736,�k�k��,4.1,��
2019/03/20,02:30,0.769,1.135,0.778,1.440,1.039,0.438,0.777,0.737,�k��,4.9,��
2019/03/20,02:40,0.769,1.137,0.779,1.442,1.038,0.439,0.778,0.737,�k�k��,4.7,��
2019/03/20,02:50,0.770,1.135,0.775,1.441,1.037,0.440,0.778,0.737,�k�k��,4.4,��
2019/03/20,03:00,0.771,1.134,0.778,1.441,1.040,0.439,0.778,0.736,�k�k��,4.5,��
2019/03/20,03:10,0.770,1.136,0.779,1.442,1.039,0.439,0.777,0.738,�k�k��,4.7,��
2019/03/20,03:20,0.772,1.135,0.777,1.441,1.043,0.440,0.777,0.737,�k�k��,4.1,��
2019/03/20,03:30,0.772,1.137,0.778,1.440,1.040,0.437,0.777,0.737,�k�k��,4.3,��
2019/03/20,03:40,0.770,1.138,0.778,1.439,1.039,0.438,0.776,0.737,�k�k��,4.0,��
2019/03/20,03:50,0.769,1.136,0.779,1.443,1.041,0.439,0.779,0.735,�k�k��,3.5,��
2019/03/20,04:00,0.769,1.135,0.779,1.439,1.040,0.440,0.775,0.736,�k�k��,3.9,��
2019/03/20,04:10,0.770,1.136,0.779,1.439,1.039,0.438,0.775,0.736,�k�k��,3.7,��
2019/03/20,04:20,0.768,1.135,0.776,1.441,1.040,0.438,0.778,0.738,�k�k��,2.9,��
2019/03/20,04:30,0.770,1.136,0.777,1.441,1.039,0.439,0.776,0.737,�k�k��,3.0,��
2019/03/20,04:40,0.770,1.137,0.778,1.439,1.036,0.439,0.775,0.736,�k�k��,2.6,��
2019/03/20,04:50,0.771,1.134,0.776,1.440,1.039,0.438,0.776,0.736,�k�k��,2.2,��
2019/03/20,05:00,0.769,1.136,0.779,1.438,1.038,0.439,0.776,0.737,�k�k��,2.2,��
2019/03/20,05:10,0.769,1.135,0.777,1.441,1.039,0.438,0.776,0.737,�k��,2.0,��
2019/03/20,05:20,0.769,1.137,0.777,1.440,1.038,0.439,0.776,0.737,�k��,2.0,��
2019/03/20,05:30,0.770,1.134,0.776,1.440,1.037,0.439,0.775,0.737,�k��,1.5,��
2019/03/20,05:40,0.770,1.135,0.776,1.439,1.038,0.438,0.777,0.736,���k��,1.5,��
2019/03/20,05:50,0.769,1.134,0.776,1.439,1.039,0.439,0.777,0.737,�k��,1.1,��
2019/03/20,06:00,0.771,1.134,0.777,1.440,1.038,0.438,0.776,0.738,���k��,1.5,��
2019/03/20,06:10,0.769,1.138,0.778,1.437,1.036,0.436,0.776,0.735,���k��,1.7,��
2019/03/20,06:20,0.768,1.135,0.777,1.437,1.039,0.439,0.776,0.736,�k��,0.9,��
2019/03/20,06:30,0.769,1.134,0.776,1.439,1.040,0.437,0.775,0.737,���k��,0.9,��
2019/03/20,06:40,0.771,1.135,0.777,1.439,1.039,0.438,0.777,0.736,��,1.5,��
2019/03/20,06:50,0.770,1.135,0.776,1.438,1.039,0.438,0.778,0.737,���쐼,1.4,��
2019/03/20,07:00,0.770,1.134,0.779,1.438,1.038,0.439,0.778,0.736,���쐼,1.5,��
2019/03/20,07:10,0.770,1.137,0.778,1.440,1.040,0.440,0.777,0.736,���쐼,1.1,��
2019/03/20,07:20,0.769,1.136,0.779,1.438,1.039,0.438,0.780,0.736,��쐼,0.8,��
2019/03/20,07:30,0.769,1.134,0.777,1.443,1.038,0.438,0.779,0.736,���쐼,0.6,��
2019/03/20,07:40,0.769,1.136,0.779,1.443,1.040,0.439,0.777,0.737,��,0.6,��
2019/03/20,07:50,0.771,1.135,0.777,1.440,1.038,0.439,0.779,0.738,-,CALM,��
2019/03/20,08:00,0.773,1.136,0.775,1.439,1.040,0.439,0.779,0.738,�쐼,0.6,��
2019/03/20,08:10,0.772,1.135,0.779,1.442,1.041,0.441,0.780,0.740,�쐼,0.9,��
2019/03/20,08:20,0.771,1.135,0.778,1.441,1.043,0.439,0.779,0.738,-,CALM,��
2019/03/20,08:30,0.772,1.135,0.780,1.441,1.042,0.439,0.778,0.738,���쓌,1.4,��
2019/03/20,08:40,0.770,1.132,0.781,1.439,1.040,0.439,0.777,0.738,���쓌,2.3,��
2019/03/20,08:50,0.773,1.134,0.777,1.441,1.042,0.438,0.777,0.739,��,2.2,��
2019/03/20,09:00,0.771,1.132,0.779,1.441,1.041,0.438,0.775,0.739,��,1.9,��
2019/03/20,09:10,0.771,1.136,0.779,1.441,1.041,0.439,0.778,0.738,���k��,1.7,��
2019/03/20,09:20,0.770,1.135,0.779,1.444,1.040,0.439,0.777,0.738,��,2.3,��
2019/03/20,09:30,0.772,1.133,0.778,1.442,1.042,0.439,0.777,0.737,��,2.8,��
2019/03/20,09:40,0.773,1.124,0.779,1.442,1.041,0.441,0.775,0.738,���쓌,2.9,��
2019/03/20,09:50,0.769,1.128,0.778,1.440,1.043,0.438,0.776,0.737,��,2.3,��
2019/03/20,10:00,0.770,1.135,0.779,1.442,1.041,0.440,0.774,0.735,��,2.9,��
2019/03/20,10:10,0.771,1.134,0.779,1.441,1.040,0.439,0.776,0.735,��,3.1,��
2019/03/20,10:20,0.770,1.135,0.780,1.444,1.041,0.438,0.776,0.733,��,3.1,��
2019/03/20,10:30,0.769,1.135,0.780,1.440,1.041,0.438,0.775,0.734,��,2.9,��
2019/03/20,10:40,0.770,1.131,0.779,1.448,1.040,0.439,0.776,0.734,���쓌,2.3,��
2019/03/20,10:50,0.770,1.134,0.778,1.440,1.042,0.438,0.778,0.734,���쓌,2.5,��
2019/03/20,11:00,0.771,1.134,0.779,1.441,1.041,0.439,0.776,0.735,��,1.7,��
2019/03/20,11:10,0.771,1.134,0.780,1.444,1.040,0.438,0.775,0.734,��,2.3,��
2019/03/20,11:20,0.771,1.137,0.780,1.443,1.042,0.438,0.778,0.736,���쓌,2.3,��
2019/03/20,11:30,0.769,1.137,0.778,1.444,1.042,0.439,0.776,0.735,���쓌,3.0,��
2019/03/20,11:40,0.771,1.137,0.778,1.444,1.041,0.437,0.776,0.734,�쓌,2.6,��
2019/03/20,11:50,0.772,1.136,0.778,1.444,1.041,0.436,0.778,0.734,�쓌,3.4,��
2019/03/20,12:00,0.771,1.140,0.779,1.441,1.043,0.440,0.778,0.734,�쓌,2.6,��
2019/03/20,12:10,0.770,1.138,0.777,1.444,1.043,0.437,0.778,0.735,���쓌,2.6,��
2019/03/20,12:20,0.772,1.139,0.778,1.444,1.042,0.440,0.778,0.736,�쓌,3.6,��
2019/03/20,12:30,0.772,1.140,0.778,1.445,1.045,0.439,0.779,0.735,�쓌,4.1,��
2019/03/20,12:40,0.772,1.137,0.778,1.444,1.042,0.440,0.778,0.735,��쓌,4.2,��
2019/03/20,12:50,0.773,1.139,0.778,1.443,1.044,0.442,0.776,0.736,�쓌,3.5,��
2019/03/20,13:00,0.772,1.138,0.777,1.443,1.043,0.442,0.779,0.733,�쓌,3.7,��
2019/03/20,13:10,0.771,1.141,0.779,1.444,1.045,0.440,0.778,0.736,��쓌,3.5,��
2019/03/20,13:20,0.773,1.136,0.778,1.445,1.043,0.439,0.779,0.736,��쓌,5.3,��
2019/03/20,13:30,0.774,1.139,0.778,1.446,1.042,0.440,0.778,0.735,��쓌,6.9,��
2019/03/20,13:40,0.772,1.139,0.779,1.445,1.043,0.439,0.779,0.736,��쓌,6.4,��
2019/03/20,13:50,0.772,1.141,0.778,1.444,1.044,0.440,0.780,0.734,��쓌,6.8,��
2019/03/20,14:00,0.773,1.139,0.780,1.444,1.043,0.440,0.779,0.735,��쓌,7.3,��
2019/03/20,14:10,0.774,1.140,0.777,1.444,1.045,0.438,0.778,0.736,��쓌,8.4,��
2019/03/20,14:20,0.772,1.141,0.779,1.446,1.043,0.440,0.780,0.735,��쓌,8.1,��
2019/03/20,14:30,0.774,1.134,0.778,1.444,1.045,0.439,0.778,0.735,��쓌,7.3,��
2019/03/20,14:40,0.772,1.136,0.778,1.445,1.047,0.439,0.780,0.735,��쓌,7.4,��
2019/03/20,14:50,0.772,1.137,0.779,1.441,1.043,0.439,0.778,0.735,��쓌,8.9,��
2019/03/20,15:00,0.772,1.143,0.779,1.448,1.042,0.439,0.779,0.737,��쓌,8.1,��
2019/03/20,15:10,0.772,1.143,0.779,1.447,1.043,0.441,0.779,0.736,��쓌,7.9,��
2019/03/20,15:20,0.773,1.144,0.780,1.443,1.045,0.442,0.778,0.735,��쓌,8.0,��
2019/03/20,15:30,0.775,1.141,0.780,1.445,1.045,0.443,0.779,0.736,��쓌,8.4,��
2019/03/20,15:40,0.772,1.145,0.781,1.444,1.045,0.441,0.778,0.735,��쓌,8.2,��
2019/03/20,15:50,0.773,1.142,0.780,1.443,1.046,0.441,0.779,0.737,��쓌,8.1,��
2019/03/20,16:00,0.771,1.141,0.779,1.446,1.044,0.442,0.779,0.737,��쓌,9.1,��
2019/03/20,16:10,0.773,1.142,0.777,1.444,1.045,0.442,0.778,0.735,��쓌,8.8,��
2019/03/20,16:20,0.771,1.144,0.780,1.446,1.044,0.443,0.778,0.733,��쓌,7.5,��
2019/03/20,16:30,0.773,1.145,0.778,1.447,1.044,0.443,0.779,0.736,��쓌,8.6,��
2019/03/20,16:40,0.771,1.145,0.781,1.444,1.044,0.443,0.777,0.735,��쓌,9.1,��
2019/03/20,16:50,0.773,1.145,0.779,1.448,1.045,0.442,0.777,0.736,��쓌,10.6,��
2019/03/20,17:00,0.772,1.145,0.781,1.443,1.043,0.443,0.779,0.738,��쓌,10.2,��
2019/03/20,17:10,0.771,1.147,0.780,1.445,1.042,0.443,0.779,0.737,��쓌,9.3,��
2019/03/20,17:20,0.771,1.145,0.779,1.444,1.045,0.442,0.778,0.738,��쓌,8.7,��
2019/03/20,17:30,0.774,1.145,0.782,1.444,1.043,0.443,0.780,0.738,��쓌,9.3,��
2019/03/20,17:40,0.772,1.145,0.782,1.447,1.042,0.443,0.779,0.739,��,8.8,��
2019/03/20,17:50,0.777,1.144,0.782,1.445,1.044,0.443,0.777,0.739,��,6.3,��
2019/03/20,18:00,0.776,1.147,0.784,1.444,1.044,0.443,0.780,0.737,��,7.1,��
2019/03/20,18:10,0.773,1.146,0.782,1.443,1.047,0.443,0.781,0.739,��,5.6,��
2019/03/20,18:20,0.775,1.146,0.781,1.443,1.047,0.442,0.781,0.738,��,5.7,��
2019/03/20,18:30,0.775,1.142,0.783,1.445,1.048,0.441,0.779,0.739,��,6.6,��
2019/03/20,18:40,0.775,1.145,0.782,1.446,1.048,0.442,0.780,0.738,��,7.5,��
2019/03/20,18:50,0.774,1.144,0.781,1.448,1.046,0.443,0.781,0.738,��,8.0,��
2019/03/20,19:00,0.777,1.143,0.782,1.445,1.049,0.441,0.780,0.737,��,8.1,��
2019/03/20,19:10,0.774,1.146,0.783,1.443,1.045,0.442,0.782,0.736,��,7.5,��
2019/03/20,19:20,0.776,1.144,0.781,1.444,1.048,0.443,0.780,0.739,��,7.6,��
2019/03/20,19:30,0.775,1.147,0.782,1.446,1.045,0.442,0.781,0.738,��,7.0,��
2019/03/20,19:40,0.774,1.147,0.784,1.444,1.047,0.443,0.782,0.738,��,6.9,��
2019/03/20,19:50,0.772,1.146,0.784,1.446,1.048,0.442,0.781,0.738,��,7.8,��
2019/03/20,20:00,0.772,1.146,0.781,1.449,1.045,0.442,0.780,0.737,��,8.1,��
2019/03/20,20:10,0.775,1.144,0.782,1.442,1.049,0.442,0.779,0.738,��,8.0,��
2019/03/20,20:20,0.774,1.145,0.781,1.444,1.046,0.441,0.778,0.739,��,8.3,��
2019/03/20,20:30,0.773,1.145,0.783,1.445,1.046,0.442,0.780,0.737,��,7.5,��
2019/03/20,20:40,0.774,1.143,0.781,1.446,1.046,0.441,0.779,0.737,��,7.9,��
2019/03/20,20:50,0.774,1.142,0.780,1.446,1.045,0.443,0.778,0.738,��,7.9,��
2019/03/20,21:00,0.774,1.143,0.782,1.446,1.048,0.442,0.780,0.738,��,7.5,��
2019/03/20,21:10,0.775,1.140,0.784,1.446,1.048,0.442,0.781,0.739,��,6.8,��
2019/03/20,21:20,0.776,1.140,0.780,1.444,1.045,0.442,0.779,0.739,��,5.9,��
2019/03/20,21:30,0.773,1.139,0.784,1.445,1.046,0.443,0.780,0.738,��쐼,6.3,��
2019/03/20,21:40,0.776,1.138,0.785,1.446,1.047,0.442,0.779,0.738,��쐼,5.9,��
2019/03/20,21:50,0.775,1.139,0.782,1.446,1.045,0.444,0.781,0.739,��쐼,6.0,��
2019/03/20,22:00,0.776,1.142,0.784,1.443,1.050,0.442,0.781,0.737,��쐼,5.4,��
2019/03/20,22:10,0.777,1.142,0.785,1.445,1.049,0.442,0.781,0.738,��쐼,6.2,��
2019/03/20,22:20,0.777,1.142,0.781,1.447,1.048,0.442,0.782,0.737,��쐼,7.2,��
2019/03/20,22:30,0.776,1.144,0.783,1.440,1.046,0.443,0.780,0.738,��,7.5,��
2019/03/20,22:40,0.775,1.143,0.783,1.444,1.047,0.443,0.779,0.737,��,7.0,��
2019/03/20,22:50,0.776,1.143,0.783,1.445,1.048,0.443,0.782,0.738,��쐼,6.0,��
2019/03/20,23:00,0.776,1.142,0.784,1.444,1.047,0.443,0.782,0.737,��쐼,6.6,��
2019/03/20,23:10,0.776,1.122,0.785,1.445,1.048,0.443,0.780,0.738,��쐼,6.7,��
2019/03/20,23:20,0.774,1.105,0.782,1.446,1.048,0.442,0.781,0.738,��쐼,6.5,��
2019/03/20,23:30,0.778,1.100,0.783,1.444,1.047,0.440,0.780,0.738,��,6.8,��
2019/03/20,23:40,0.778,1.090,0.782,1.445,1.049,0.440,0.779,0.738,��,6.9,��
2019/03/20,23:50,0.775,1.122,0.783,1.446,1.048,0.444,0.781,0.738,��쐼,6.7,��
